Regional Weather Roundup
Issued by NWS Newport/Morehead, NC

Current Version | Previous Version | Text Only | Print | Product List | Glossary Off
Versions: 1 2 3 4 5 6 7 8 9 10 11 12 13 14 15 16 17 18 19 20 21 22 23 24 25 26 27 28 29 30 31 32 33 34 35 36 37 38 39 40 41 42 43 44 45 46 47 48 49 50
000 ASUS42 KMHX 241710 RWRMHX WEATHER ROUNDUP FOR EASTERN NORTH CAROLINA NATIONAL WEATHER SERVICE NEWPORT/MOREHEAD CITY NC 1200 PM EST MON NOV 24 2014 NOTE: "FAIR" INDICATES FEW OR NO CLOUDS BELOW 12,000 FEET WITH NO SIGNIFICANT WEATHER AND/OR OBSTRUCTIONS TO VISIBILITY NCZ015>017-031-032-045>047-102-103-241800- NORTH COAST CITY SKY/WX TMP DP RH WIND PRES REMARKS EDENTON PTSUNNY 71 64 79 SW10 29.84F ELIZABETH CITY MOSUNNY 74 65 73 S16G23 29.84F KITTY HAWK SUNNY 70 66 89 SW7 29.85F MANTEO PTSUNNY 64 63 96 S13 29.87S $$ NCZ045>047-081-094-103-104-241800- CENTRAL COAST CITY SKY/WX TMP DP RH WIND PRES REMARKS FRISCO CLOUDY 68 67 96 SW12 29.91R FOG SWANQUARTER N/A 63 N/A N/A S12 29.85S $$ NCZ095-097-098-100-101-241800- SOUTHERN COAST CITY SKY/WX TMP DP RH WIND PRES REMARKS BEAUFORT CLOUDY 67 66 97 SW13 29.91S FOG CEDAR ISLAND N/A 72 N/A N/A S7G16 29.94S JACKSONVILLE CLOUDY 70 68 93 S5 29.87F PINEY ISLAND CLOUDY 73 69 87 SW12 29.90S FOG WILMINGTON CLOUDY 71 69 93 SW10G20 29.87F $$ NCZ011>013-027>030-043-044-078>080-089-090>093-098-241800- COASTAL PLAIN CITY SKY/WX TMP DP RH WIND PRES REMARKS AHOSKIE PTSUNNY 73 62 68 SW5 29.82F CLINTON CLOUDY 70 68 93 S5 29.84F ELIZABETHTOWN RAIN 68 68 100 S5 29.85F GOLDSBORO CLOUDY 71 71 98 SW5 29.82F GREENVILLE PTSUNNY 72 66 83 SW12 29.87F HAVELOCK CLOUDY 71 68 90 SW8 29.89F FOG KENANSVILLE CLOUDY 68 66 93 CALM 29.87F KINSTON CLOUDY 72 66 83 S9 29.86F NEW BERN LGT RAIN 71 67 87 S7 29.89F FOG RICHLANDS CLOUDY 70 64 83 S8 29.87F ROCKY MOUNT PTSUNNY 71 62 73 SW10 29.82F WASHINGTON PTSUNNY 72 66 81 SW9 29.87F WHITEVILLE CLOUDY 69 68 96 S5 29.84F FOG $$ AMZ130-135-150-152-154-156-158-170-250-252-270-ANZ085-086-088-633-658-670-241800- MARINE OBSERVATIONS STATION/POSITION TIME TEMP WIND PRES WAVE SWELL AIR SEA DIR/SP/G HT/PER HT/PER (UTC) (F) (DEG/KT/KT) (MB) (FT/S) (FT/S) CHESAPEAKE LIGHT 1600 61 190/ 23/ 23 1010.3 64 E VA BEACH 1700 67 63 210/ 19/ 23 1010.2 11/10 10/10 DUCK 1700 66 57 190/ 14/ 17 1009.9 2 E DUCK 1700 58 N/A 5/10 2/11 10 NE DUCK 1700 59 N/A 7/ 9 3/12 OREGON INLET 1700 60 55 190/ 12/ 14 1011.5 13E OREGON INLT 1700 62 N/A 7/10 3/11 HATTERAS CG 1700 69 61 230/ 11/ 15 1012.9 DIAMOND BUOY 1700 76 200/ 17/ 23 1012.8 10/10 8/10 17 S OCRACOKE NOT AVBL CAPE LOOKOUT 1600 69 220/ 10/ 13 1012.7 BEAUFORT LAB 1700 64 57 210/ 6/ 8 1011.9 30 SE NEW RIVER 1700 72 70 230/ 16/ 19 1013.0 8/ 9 7/ 9 5 SE WRIGHTSVLE 1600 62 60 220/ 10/ 12 1012.6 225 S CAPE HAT 1604 75 73 200/ 16/ 19 1018.0 8/ 8 5/ 8 41 SE CHARLESTON 1700 76 75 200/ 21/ 25 1011.1 10/ 9 7/ 9 $$

USA.gov is the U.S. government's official web portal to all federal, state and local government web resources and services.